Starlink 31289

operational
NORAD ID: 59173 Int'l Des: 2024-044 Owner: SPXS Country: US Constellation: starlink
LEOCIRCULAR

About Starlink 31289

Description loading...

Live Position

Loading 3D Globe...

Upcoming Passes

Altitude History

Altitude vs Time

uPlot chart will show altitude changes over time

Two-Line Element Set

1 59173U 24044X 25338.54230276 -.00002154 00000-0 -68807-4 0 9996
2 59173 43.0022 284.4028 0000853 297.2866 62.7898 15.27570122 99046
Epoch: Dec 4, 2025 • Age: 13 hours

Current Status

Altitude 483.5 km
Velocity 7.63 km/s
Sub-Earth Point -2.76°S, 5.51°W
Launch Date Mar 4, 2024
Age 1.7 years
Type internet

Technical Details

Classification Payload
Mass 730.00 kg
Dry Mass 700.00 kg
Total Mass 730.00 kg
Length 0.30 m
Diameter 4.10 m
Span 29.00 m
Shape Box + pan
Manufacturer SPXS
Bus Type Starlink V2M
Phase Status In Orbit
Owner/State SPXS/US

Large Constellations

Loading constellations...